EW9439 Weather Reports


time (UTC)temp
C
wind
direction
speed
KPH
gust
KPH
rain 1hr
cm
rain 24hr
cm
rain mn
cm
humidity
%
barometer
mb
20220629040030 21 134 0.0 0.0 0.03 0.25 0.25 96 1018.6
20220629034542 21 134 0.0 0.0 0.00 0.23 0.23 95 1018.3
20220629033029 21 134 0.0 0.0 0.00 0.23 0.23 95 1018.3
20220629031507 21 134 0.0 0.0 0.00 0.23 0.23 94 1018.3
20220629030009 21 134 0.0 0.0 0.00 0.23 0.23 94 1018.2
20220629024513 21 134 0.0 0.0 0.00 0.23 0.23 94 1018.1
20220629023032 21 134 0.0 0.0 0.00 0.23 0.23 94 1017.9
20220629021546 21 134 0.0 0.0 0.00 0.23 0.23 94 1017.7
20220629020048 21 134 0.0 0.0 0.00 0.23 0.23 93 1017.5
20220629014550 21 134 0.0 0.0 0.00 0.23 0.23 93 1017.2
20220629013030 21 137 0.0 0.0 0.00 0.23 0.23 94 1016.9
20220629011533 21 137 0.0 0.0 0.03 0.23 0.23 94 1016.9
20220629010031 21 312 0.0 0.0 0.03 0.25 0.23 94 1016.9
20220629004540 21 304 0.0 0.0 0.08 0.25 0.23 94 1016.8
20220629003041 22 304 0.0 0.0 0.10 0.25 0.23 94 1016.8
20220629001542 22 304 0.0 0.0 0.13 0.23 0.20 94 1016.8
20220629000042 22 304 0.0 0.0 0.18 0.23 0.20 94 1016.6
20220628234541 22 304 0.0 0.0 0.13 0.18 0.15 93 1016.8
20220628233042 22 304 0.0 0.0 0.10 0.15 0.13 92 1016.8
20220628231540 22 304 0.0 0.0 0.05 0.10 0.08 89 1016.5
20220628230039 23 304 0.0 0.0 0.00 0.05 0.03 88 1016.5
20220628224542 23 304 0.0 0.0 0.03 0.05 0.03 87 1016.6
20220628223047 23 304 0.0 0.0 0.03 0.05 0.03 87 1016.4
20220628221545 24 304 0.0 0.0 0.03 0.05 0.03 83 1016.1
20220628220044 25 304 0.0 0.0 0.03 0.05 0.03 80 1016.3
20220628214547 25 304 0.0 0.0 0.00 0.03 0.00 76 1016.2
20220628213049 25 225 0.0 0.0 0.00 0.03 0.00 77 1016.1
20220628211550 25 225 0.0 0.0 0.00 0.03 0.00 76 1016.1
20220628210050 26 225 0.0 0.0 0.00 0.03 0.00 75 1015.9
20220628204603 27 225 0.0 0.0 0.00 0.03 0.00 69 1015.8
20220628204501 27 225 0.0 0.0 0.00 0.03 0.00 69 1015.8
20220628203102 27 225 0.0 0.0 0.00 0.03 0.00 68 1016.2
20220628203002 27 225 0.0 0.0 0.00 0.03 0.00 68 1016.1
20220628201508 27 322 0.0 0.0 0.00 0.03 0.00 68 1016.0
20220628200007 27 272 0.0 0.0 0.00 0.03 0.00 67 1016.3
20220628194507 27 321 0.0 0.0 0.00 0.03 0.00 67 1016.2
20220628193013 28 346 0.0 3.2 0.00 0.03 0.00 67 1016.6
20220628191521 28 276 0.0 1.6 0.00 0.03 0.00 67 1016.5
20220628190034 27 169 0.0 0.0 0.00 0.03 0.00 67 1016.8
20220628184529 27 288 0.0 0.0 0.00 0.03 0.00 68 1016.8
20220628183025 27 338 0.0 0.0 0.00 0.03 0.00 68 1017.0
20220628181529 27 341 0.0 0.0 0.00 0.03 0.00 68 1017.2
20220628180036 27 196 0.0 0.0 0.00 0.03 0.00 67 1017.2
20220628174548 27 327 0.0 0.0 0.00 0.03 0.00 67 1017.2
20220628173035 27 337 0.0 0.0 0.00 0.03 0.00 67 1017.3
20220628171539 27 28 0.0 9.7 0.00 0.03 0.00 69 1017.5
20220628170039 27 169 0.0 0.0 0.00 0.03 0.00 69 1017.6
20220628164541 27 317 0.0 0.0 0.00 0.03 0.00 70 1017.5
20220628163023 27 327 0.0 0.0 0.00 0.03 0.00 70 1017.5
20220628161523 26 44 0.0 1.6 0.00 0.03 0.00 71 1017.6
20220628160021 26 327 0.0 3.2 0.00 0.03 0.00 72 1017.6
20220628154536 25 326 0.0 1.6 0.00 0.03 0.00 74 1017.7
20220628153011 24 344 0.0 1.6 0.00 0.03 0.00 78 1017.7
20220628151510 24 328 0.0 9.7 0.00 0.03 0.00 78 1017.7
20220628150014 24 343 0.0 1.6 0.00 0.03 0.00 79 1017.6
20220628144556 23 336 0.0 0.0 0.00 0.03 0.00 81 1017.6
20220628143057 23 277 0.0 1.6 0.00 0.03 0.00 83 1017.5
20220628141514 23 350 0.0 0.0 0.00 0.03 0.00 84 1017.4
20220628140018 23 248 0.0 0.0 0.00 0.03 0.00 85 1017.2
20220628134550 23 148 0.0 0.0 0.00 0.03 0.00 87 1017.1
20220628133053 23 355 0.0 1.6 0.00 0.03 0.00 87 1017.1
20220628131557 23 355 0.0 0.0 0.00 0.03 0.00 87 1017.1
20220628130006 22 343 0.0 0.0 0.00 0.03 0.00 88 1017.0
20220628124506 22 346 0.0 0.0 0.00 0.03 0.00 88 1016.8
20220628123008 22 336 0.0 0.0 0.00 0.03 0.00 90 1016.7
20220628121508 22 57 0.0 0.0 0.00 0.03 0.00 90 1016.4
20220628120022 21 126 0.0 6.4 0.00 0.03 0.00 91 1016.2
20220628114517 21 26 0.0 0.0 0.00 0.03 0.00 93 1015.9
20220628113014 21 24 0.0 0.0 0.00 0.03 0.00 93 1015.8
20220628111518 21 24 0.0 0.0 0.00 0.03 0.00 94 1015.8
20220628110020 21 24 0.0 0.0 0.00 0.03 0.00 94 1015.7
20220628104522 21 25 0.0 0.0 0.00 0.03 0.00 94 1015.6
20220628103020 21 25 0.0 0.0 0.00 0.03 0.00 94 1015.5
20220628101528 21 25 0.0 0.0 0.00 0.03 0.00 95 1015.3
20220628100022 20 25 0.0 0.0 0.00 0.03 0.00 95 1015.2
20220628094522 21 25 0.0 0.0 0.00 0.03 0.00 95 1015.0
20220628093028 21 25 0.0 0.0 0.00 0.03 0.00 95 1015.0
20220628091529 21 25 0.0 0.0 0.00 0.03 0.00 95 1014.9
20220628090032 21 25 0.0 0.0 0.00 0.03 0.00 95 1014.9
20220628084545 21 25 0.0 0.0 0.00 0.03 0.00 95 1014.8
20220628083037 21 25 0.0 0.0 0.00 0.03 0.00 95 1014.6
20220628081544 21 25 0.0 0.0 0.00 0.03 0.00 95 1014.6
20220628080042 21 25 0.0 0.0 0.00 0.03 0.00 95 1014.6
20220628074550 21 25 0.0 0.0 0.00 0.03 0.00 95 1014.5
20220628073058 21 25 0.0 0.0 0.00 0.03 0.00 95 1014.5
20220628071601 21 25 0.0 0.0 0.00 0.03 0.00 95 1014.4
20220628070059 21 25 0.0 0.0 0.00 0.03 0.00 95 1014.3
20220628070002 21 25 0.0 0.0 0.00 0.03 0.00 95 1014.4
20220628063016 21 25 0.0 0.0 0.00 0.03 0.00 95 1014.3
20220628061527 21 25 0.0 0.0 0.00 0.03 0.00 95 1014.4
20220628060015 21 25 0.0 0.0 0.00 0.03 0.00 95 1014.5
20220628054515 21 25 0.0 0.0 0.00 0.03 0.00 94 1014.5